[[{"header":{"parameterUnit":"m.s-1","parameterCategory":1,"la1":30.2991,"la2":30.254,"lo1":-89.0895,"lo2":-89.0444,"dy":0.0017,"dx":0.0017,"nx":28,"ny":28,"refTime":"2025-12-25T09:00:00:Z","depth":0,"parameterNumber":2,"parameterNumberName":"U-component_of_WINDS"},"data":[0,0,0,0,0,0,0,0,0,0,0,0,0,0,0,0,0,0,0,0,0,0,0,0,0,0,0,0,0,0,0,0,0,0,0,0,0,0,0,0,0,0,0,0,0,0,0,0,0,0,0,0,0,0,0,0,0,0,2.0604,2.0605,0,2.0748,2.0749,2.0751,2.0762,2.0761,2.0759,2.0758,2.0908,2.0913,2.0919,0,0,0,0,0,0,0,0,0,0,0,0,0,2.0343,2.0348,2.0604,2.0606,2.0607,2.0747,2.0749,2.0751,2.0763,2.0761,2.0759,2.0757,2.0906,2.0913,2.0919,0,0,0,0,0,0,0,0,0,0,0,0,0,2.0468,2.0349,2.0603,2.063,2.0634,2.0747,2.0749,2.0752,2.0763,2.0761,2.0758,2.0756,2.0904,2.0912,2.092,2.1018,0,0,2.0945,2.0949,0,0,0,0,0,0,0,0,2.0461,2.0478,2.0624,2.0628,2.0633,2.0735,2.0712,2.0841,2.0764,2.0714,2.0758,2.0755,2.0852,2.0865,2.0897,2.1025,2.1031,2.0946,2.0951,2.0954,2.0957,0,0,0,0,0,0,0,2.0453,2.0472,2.0661,2.0626,2.0632,2.0636,2.0651,2.0737,2.0795,2.0718,2.0719,2.0736,2.0854,2.0889,2.09,2.1033,2.0946,2.0953,2.0958,2.0961,2.125,2.1252,0,0,0,0,0,0,2.0438,2.0465,2.0656,2.0665,2.0539,2.0642,2.0659,2.0704,2.0794,2.0805,2.0738,2.0736,2.0876,2.0891,2.0906,2.1026,2.0954,2.0962,2.0967,2.1247,2.125,2.1253,0,0,0,0,0,0,2.0433,2.0455,2.065,2.0565,2.059,2.0649,2.07,2.0708,2.0743,2.0809,2.0819,2.0762,2.0875,2.0894,2.099,2.1032,2.0966,2.0973,2.1244,2.1248,2.1252,2.1267,0,0,0,0,0,0,2.0425,2.0453,2.049,2.0566,2.0595,2.0731,2.0702,2.0713,2.0757,2.0756,2.0835,2.0845,2.0875,2.0977,2.0998,2.1042,2.0979,2.124,2.1246,2.125,2.1263,2.1272,2.1279,0,0,0,0,0,2.0416,2.0489,2.0492,2.0515,2.0642,2.0733,2.075,2.0781,2.076,2.0798,2.0841,2.0843,2.1024,2.0987,2.101,2.1057,2.1238,2.1244,2.125,2.126,2.127,2.1278,0,0,0,0,0,0,2.0417,2.0499,2.0503,2.0603,2.0661,2.0735,2.0783,2.079,2.0856,2.0852,2.0889,2.0907,2.1001,2.1039,2.0997,2.1157,2.1129,2.114,2.1128,2.1139,2.1146,2.1135,2.0986,0,0,0,0,0,2.0428,2.0495,2.0564,2.0645,2.0674,2.0724,2.0765,2.0784,2.0846,2.087,2.092,2.0981,2.1052,2.1097,2.1166,2.1269,2.1287,2.1313,2.1321,2.1327,2.1336,2.1394,2.1407,2.1274,2.1274,2.1273,0,0,2.0453,2.0507,2.0546,2.0647,2.0694,2.0763,2.0744,2.0818,2.087,2.0882,2.0975,2.1014,2.1084,2.1184,2.1231,2.1218,2.1377,2.1335,2.1339,2.1345,2.1402,2.1414,2.1425,2.1278,2.1277,2.1276,0,0,2.0534,2.0581,2.0654,2.0702,2.0773,2.0806,2.0824,2.0897,2.0923,2.1017,2.1028,2.1091,2.1212,2.1262,2.1303,2.1405,2.1409,2.1426,2.1465,2.1522,2.1532,2.1542,2.1578,2.1591,2.1435,2.1435,2.1435,0,2.0556,2.0659,2.0691,2.0764,2.0808,2.0823,2.0898,2.0943,2.1034,2.1065,2.1049,2.1202,2.1251,2.1363,2.1388,2.1421,2.1443,2.1417,2.1528,2.1538,2.1547,2.1582,2.1596,2.1437,2.1436,2.1436,2.1436,0,2.0683,2.0754,2.0805,2.0892,2.0942,2.1016,2.106,2.1107,2.1123,2.1158,2.1254,2.1313,2.1394,2.1423,2.1438,2.1538,2.1528,2.152,2.1492,2.1561,2.1594,2.1608,2.1439,2.1438,2.1438,2.1437,0,0,2.0766,2.087,2.0888,2.0928,2.1009,2.1066,2.1141,2.122,2.126,2.1323,2.1387,2.149,2.1484,2.1531,2.1553,2.1603,2.168,2.1589,2.1591,2.1604,2.1793,2.1798,2.1813,2.1684,2.1687,2.1689,2.1787,0,2.0855,2.0988,2.102,2.1135,2.1202,2.1217,2.1284,2.1341,2.1376,2.1439,2.1479,2.1551,2.1537,2.1566,2.1616,2.1659,2.1718,2.1653,2.1745,2.1748,2.1726,2.183,2.1835,2.1925,2.1801,2.1803,2.1804,0,2.0976,2.1041,2.1162,2.1235,2.1265,2.1323,2.1399,2.1459,2.1525,2.1548,2.1601,2.1618,2.1699,2.1668,2.178,2.1735,2.1775,2.1802,2.1807,2.1816,2.1779,2.1842,2.1955,2.1968,2.1826,2.1824,2.1822,0,2.1024,2.1143,2.123,2.1264,2.1352,2.1393,2.1431,2.1495,2.1541,2.1608,2.1638,2.1713,2.1755,2.1813,2.1851,2.1825,2.1961,2.1933,2.1982,2.1981,2.2009,2.2006,2.2129,2.2036,2.2036,2.2035,2.2035,0,2.112,2.1193,2.1253,2.1307,2.139,2.1427,2.1509,2.1548,2.1606,2.1668,2.1688,2.1746,2.1793,2.1859,2.1889,2.1978,2.1997,2.2018,2.2025,2.2015,2.2013,2.2041,2.2036,2.2039,2.2038,2.2037,2.2037,0,2.1187,2.123,2.1327,2.1402,2.1423,2.1481,2.1546,2.16,2.1637,2.1716,2.1737,2.1794,2.1873,2.1917,2.2016,2.2036,2.2135,2.2139,2.2112,2.2115,2.2161,2.2156,2.2306,2.2328,2.2221,2.2222,2.2223,0,2.1244,2.1301,2.1383,2.1426,2.1465,2.1535,2.1582,2.1621,2.1669,2.175,2.1794,2.1874,2.1939,2.2064,2.2116,2.2192,2.2198,2.2245,2.2209,2.2199,2.2198,2.2194,2.22,2.2251,2.2252,2.2253,2.2253,0,2.1342,2.1361,2.1427,2.1502,2.1557,2.1618,2.1678,2.1713,2.1762,2.1816,2.1896,2.1947,2.2048,2.2127,2.2208,2.2249,2.226,2.2265,2.228,2.227,2.2252,2.2262,2.2128,2.2261,2.226,2.2259,2.2259,2.2259,2.1406,2.1457,2.1523,2.1597,2.1647,2.1703,2.1757,2.1801,2.1868,2.1953,2.1973,2.2057,2.2124,2.2233,2.2277,2.2344,2.2336,2.2358,2.2364,2.2368,2.2369,2.2242,2.2359,2.2359,2.2359,2.2359,2.2359,0,2.1504,2.1547,2.1615,2.1699,2.1757,2.1762,2.183,2.1879,2.1953,2.2014,2.2078,2.2171,2.2248,2.2306,2.2385,2.2428,2.2435,2.2448,2.2444,2.2454,2.2373,2.2351,2.2441,2.2441,2.2441,2.2441,2.2441,2.2441,2.1562,2.1649,2.1676,2.1789,2.1833,2.1915,2.1953,2.2006,2.2055,2.2157,2.2221,2.2259,2.2319,2.2403,2.2475,2.249,2.2518,2.253,2.2545,2.2468,2.246,2.2451,2.2431,2.2536,2.2536,2.2621,2.2622,2.2622]},{"header":{"parameterUnit":"m.s-1","parameterCategory":1,"la1":30.2991,"la2":30.254,"lo1":-89.0895,"lo2":-89.0444,"dy":0.0017,"dx":0.0017,"nx":28,"ny":28,"refTime":"2025-12-25T09:00:00:Z","depth":0,"parameterNumber":3,"parameterNumberName":"V-component_of_WINDS"},"data":[0,0,0,0,0,0,0,0,0,0,0,0,0,0,0,0,0,0,0,0,0,0,0,0,0,0,0,0,0,0,0,0,0,0,0,0,0,0,0,0,0,0,0,0,0,0,0,0,0,0,0,0,0,0,0,0,0,0,1.374,1.3739,0,1.3669,1.3668,1.3668,1.3661,1.3662,1.3662,1.3663,1.3585,1.3582,1.3579,0,0,0,0,0,0,0,0,0,0,0,0,0,1.3863,1.386,1.374,1.3739,1.3738,1.3669,1.3668,1.3667,1.3661,1.3662,1.3663,1.3664,1.3586,1.3582,1.3579,0,0,0,0,0,0,0,0,0,0,0,0,0,1.3802,1.386,1.374,1.3727,1.3725,1.367,1.3668,1.3667,1.3661,1.3662,1.3663,1.3664,1.3587,1.3583,1.3578,1.353,0,0,1.3566,1.3564,0,0,0,0,0,0,0,0,1.3806,1.3798,1.3729,1.3727,1.3725,1.3675,1.3683,1.3621,1.366,1.3685,1.3663,1.3664,1.3613,1.3607,1.3591,1.3526,1.3523,1.3565,1.3563,1.3561,1.356,0,0,0,0,0,0,0,1.381,1.3801,1.3712,1.3728,1.3726,1.3722,1.3715,1.3671,1.3643,1.3683,1.3682,1.3674,1.3612,1.3595,1.3589,1.3522,1.3565,1.3562,1.3559,1.3557,1.3412,1.3411,0,0,0,0,0,0,1.3817,1.3804,1.3714,1.371,1.3769,1.3719,1.3711,1.369,1.3644,1.3638,1.3673,1.3674,1.3602,1.3594,1.3586,1.3526,1.3561,1.3557,1.3555,1.3414,1.3412,1.3411,0,0,0,0,0,0,1.382,1.3809,1.3717,1.3757,1.3745,1.3716,1.3692,1.3688,1.3671,1.3637,1.3631,1.3661,1.3602,1.3592,1.3544,1.3523,1.3555,1.3551,1.3415,1.3413,1.3411,1.3406,0,0,0,0,0,0,1.3824,1.381,1.3793,1.3756,1.3743,1.3678,1.3691,1.3686,1.3664,1.3665,1.3624,1.3618,1.3603,1.3551,1.354,1.3518,1.3548,1.3417,1.3414,1.3412,1.3407,1.3404,1.34,0,0,0,0,0,1.3828,1.3793,1.3792,1.3781,1.3721,1.3676,1.3668,1.3653,1.3663,1.3644,1.3622,1.362,1.3528,1.3546,1.3534,1.351,1.3418,1.3415,1.3412,1.3409,1.3404,1.34,0,0,0,0,0,0,1.3825,1.3788,1.3787,1.3739,1.3711,1.3675,1.3651,1.3648,1.3615,1.3617,1.3597,1.3588,1.354,1.352,1.3541,1.3461,1.3474,1.3468,1.3475,1.3471,1.3467,1.3472,1.3545,0,0,0,0,0,1.382,1.3789,1.3757,1.3718,1.3704,1.368,1.366,1.3651,1.3621,1.3608,1.3583,1.3551,1.3515,1.3492,1.3457,1.3405,1.3395,1.3383,1.3379,1.3376,1.3371,1.3342,1.3336,1.3401,1.3401,1.3401,0,0,1.3806,1.3782,1.3764,1.3717,1.3694,1.3661,1.367,1.3635,1.3609,1.3602,1.3556,1.3536,1.3499,1.3449,1.3426,1.3431,1.3351,1.3373,1.3371,1.3367,1.3338,1.3332,1.3326,1.3399,1.3399,1.34,0,0,1.3766,1.3745,1.371,1.3688,1.3654,1.3639,1.363,1.3595,1.3583,1.3536,1.353,1.3498,1.3437,1.3412,1.339,1.3341,1.3337,1.333,1.3311,1.3282,1.3277,1.3272,1.3253,1.3247,1.3325,1.3325,1.3325,0,1.3753,1.3705,1.3692,1.3657,1.3636,1.363,1.3594,1.3572,1.3528,1.3512,1.352,1.3443,1.3418,1.3362,1.335,1.3333,1.3322,1.3334,1.3279,1.3274,1.3269,1.3251,1.3244,1.3325,1.3325,1.3325,1.3325,0,1.3691,1.3657,1.3633,1.3593,1.3569,1.3533,1.3513,1.349,1.3483,1.3466,1.3418,1.3389,1.3348,1.3334,1.3325,1.3275,1.328,1.3283,1.3296,1.3263,1.3245,1.3238,1.3324,1.3324,1.3324,1.3324,0,0,1.3645,1.36,1.3591,1.3573,1.3536,1.3508,1.3472,1.3434,1.3414,1.3384,1.3351,1.33,1.3304,1.328,1.3268,1.3243,1.3205,1.325,1.3248,1.3242,1.3147,1.3144,1.3136,1.3203,1.3201,1.32,1.315,0,1.36,1.3537,1.3525,1.3469,1.3437,1.3432,1.34,1.3373,1.3356,1.3325,1.3305,1.3269,1.3277,1.3262,1.3237,1.3215,1.3185,1.3219,1.317,1.3169,1.3179,1.3128,1.3124,1.3078,1.3143,1.3142,1.3141,0,1.3538,1.3509,1.3451,1.3419,1.3405,1.3376,1.334,1.3312,1.328,1.327,1.3244,1.3235,1.3195,1.3211,1.3154,1.3177,1.3157,1.3143,1.314,1.3134,1.3152,1.3119,1.3063,1.3056,1.313,1.3131,1.3132,0,1.351,1.3456,1.3414,1.3399,1.336,1.334,1.3322,1.3292,1.327,1.3238,1.3223,1.3186,1.3166,1.3136,1.3118,1.3131,1.3062,1.3076,1.3051,1.3051,1.3036,1.3037,1.2975,1.3024,1.3024,1.3024,1.3025,0,1.346,1.3424,1.3401,1.3375,1.3335,1.332,1.328,1.3262,1.3236,1.3205,1.3197,1.3168,1.3146,1.3113,1.3098,1.3053,1.3044,1.3033,1.3029,1.3033,1.3034,1.3018,1.3021,1.3023,1.3023,1.3023,1.3024,0,1.3421,1.3404,1.3358,1.3326,1.3317,1.3289,1.326,1.3234,1.3218,1.3179,1.3169,1.3142,1.3103,1.3083,1.3033,1.3023,1.2972,1.297,1.2983,1.2982,1.2957,1.2959,1.2882,1.287,1.2928,1.2928,1.2928,0,1.3389,1.3362,1.3328,1.3308,1.3291,1.3259,1.3237,1.3221,1.3198,1.316,1.3138,1.31,1.3068,1.3006,1.298,1.2942,1.2939,1.2915,1.2933,1.2938,1.2937,1.2939,1.2936,1.2911,1.291,1.291,1.291,0,1.3335,1.3329,1.3299,1.3266,1.324,1.3213,1.3186,1.3169,1.3149,1.3123,1.3085,1.306,1.3011,1.2972,1.2932,1.2911,1.2906,1.2904,1.2896,1.2899,1.2908,1.2902,1.2974,1.2906,1.2906,1.2906,1.2907,1.2907,1.3298,1.3274,1.3247,1.3213,1.3192,1.3166,1.3141,1.3122,1.309,1.305,1.3043,1.3001,1.297,1.2916,1.2895,1.2861,1.2866,1.2854,1.2851,1.2848,1.2847,1.2914,1.2854,1.2854,1.2854,1.2854,1.2854,0,1.3243,1.3226,1.3195,1.3159,1.3132,1.3133,1.3102,1.3079,1.3044,1.3016,1.2986,1.2941,1.2903,1.2876,1.2837,1.2815,1.2812,1.2805,1.2806,1.2801,1.2845,1.2856,1.2809,1.2809,1.2809,1.2809,1.2809,1.2809,1.3211,1.317,1.316,1.3108,1.309,1.3051,1.3034,1.301,1.2988,1.2939,1.2909,1.2892,1.2864,1.2823,1.2788,1.2781,1.2766,1.276,1.2752,1.2793,1.2798,1.2803,1.2813,1.2757,1.2757,1.2711,1.271,1.271]}]]